• In Hungary
  • List of Countries
  • For 7 days
  • Water Temperature
  • Satellite Maps
  • Weather Map
  • News
  • Weather Widgets
  • user-avatar
    Login

    Hourly Weather Staryy Zagan

    Today, 24 October, Tuesday

    Time Temperature Precipitation Wind Pressure Humidity
    00:00 +2°C° 0 mm 1 mps 681 mmHg 84%
    01:00 +1°C° 0 mm 1 mps 681 mmHg 87%
    02:00 +1°C° 0 mm 1 mps 682 mmHg 89%
    03:00 +1°C° 0 mm 1 mps 682 mmHg 90%
    04:00 0°C° 0 mm 1 mps 682 mmHg 92%
    05:00 0°C° 0 mm 1 mps 683 mmHg 91%
    06:00 0°C° 0 mm 1 mps 683 mmHg 89%
    07:00 0°C° 0 mm 1 mps 684 mmHg 87%
    08:00 +2°C° 0 mm 1 mps 684 mmHg 74%
    09:00 +3°C° 0 mm 1 mps 684 mmHg 61%
    10:00 +4°C° 0 mm 1 mps 684 mmHg 48%
    11:00 +5°C° 0 mm 1 mps 684 mmHg 45%
    12:00 +6°C° 0 mm 1 mps 684 mmHg 43%
    13:00 +7°C° 0 mm 1 mps 684 mmHg 41%
    14:00 +6°C° 0 mm 1 mps 683 mmHg 45%
    15:00 +4°C° 0 mm 0 mps 683 mmHg 49%
    16:00 +3°C° 0 mm 0 mps 682 mmHg 54%
    17:00 +2°C° 0 mm 0 mps 682 mmHg 58%
    18:00 +1°C° 0 mm 0 mps 682 mmHg 61%
    19:00 +1°C° 0 mm 1 mps 682 mmHg 65%
    20:00 +1°C° 0 mm 1 mps 682 mmHg 67%
    21:00 0°C° 0 mm 1 mps 682 mmHg 69%
    22:00 0°C° 0 mm 1 mps 682 mmHg 70%
    23:00 0°C° 0 mm 1 mps 681 mmHg 73%

    Tomorrow, 25 October, Wednesday

    Time Temperature Precipitation Wind Pressure Humidity
    00:00 0°C° 0 mm 1 mps 681 mmHg 76%
    01:00 -2°C° 0 mm 2 mps 681 mmHg 79%
    02:00 -2°C° 0 mm 2 mps 680 mmHg 82%
    03:00 -2°C° 0 mm 2 mps 680 mmHg 85%
    04:00 -3°C° 0 mm 2 mps 679 mmHg 88%
    05:00 -1°C° 0 mm 1 mps 679 mmHg 89%
    06:00 -1°C° 0 mm 1 mps 679 mmHg 89%
    07:00 -1°C° 0 mm 1 mps 679 mmHg 90%
    08:00 +1°C° 0 mm 2 mps 679 mmHg 79%
    09:00 +3°C° 0 mm 2 mps 679 mmHg 68%
    10:00 +6°C° 0 mm 2 mps 679 mmHg 57%
    11:00 +6°C° 0 mm 2 mps 679 mmHg 55%
    12:00 +7°C° 0 mm 2 mps 678 mmHg 52%
    13:00 +8°C° 0 mm 2 mps 678 mmHg 49%
    14:00 +7°C° 0 mm 2 mps 678 mmHg 55%
    15:00 +7°C° 0 mm 1 mps 677 mmHg 60%
    16:00 +5°C° 0 mm 1 mps 677 mmHg 66%
    17:00 +4°C° 0 mm 1 mps 677 mmHg 71%
    18:00 +2°C° 0 mm 0 mps 677 mmHg 75%
    19:00 +1°C° 0 mm 0 mps 678 mmHg 80%
    20:00 +2°C° 0 mm 1 mps 678 mmHg 81%
    21:00 +1°C° 0 mm 1 mps 678 mmHg 82%
    22:00 +1°C° 0 mm 1 mps 677 mmHg 84%
    23:00 +1°C° 0 mm 1 mps 677 mmHg 84%

    Day after tomorrow, 26 October, Thursday

    Time Temperature Precipitation Wind Pressure Humidity
    00:00 +1°C° 0 mm 1 mps 677 mmHg 85%
    01:00 0°C° 0 mm 1 mps 676 mmHg 86%
    02:00 0°C° 0 mm 1 mps 676 mmHg 87%
    03:00 0°C° 0 mm 1 mps 675 mmHg 87%
    04:00 -2°C° 0 mm 2 mps 675 mmHg 88%
    05:00 -2°C° 0 mm 2 mps 675 mmHg 87%
    06:00 -2°C° 0 mm 2 mps 675 mmHg 86%
    07:00 -2°C° 0 mm 2 mps 674 mmHg 85%
    08:00 +1°C° 0 mm 2 mps 674 mmHg 74%
    09:00 +4°C° 0 mm 2 mps 674 mmHg 64%
    10:00 +6°C° 0 mm 2 mps 674 mmHg 53%
    11:00 +6°C° 0 mm 2 mps 674 mmHg 52%
    12:00 +7°C° 0 mm 2 mps 674 mmHg 51%
    13:00 +7°C° 0 mm 3 mps 673 mmHg 50%
    14:00 +5°C° 0 mm 3 mps 673 mmHg 56%
    15:00 +3°C° 0 mm 3 mps 673 mmHg 62%
    16:00 +2°C° 0 mm 3 mps 673 mmHg 68%
    17:00 +1°C° 0 mm 3 mps 673 mmHg 72%
    18:00 0°C° 0 mm 3 mps 674 mmHg 77%
    19:00 -1°C° 0 mm 3 mps 674 mmHg 81%
    20:00 -2°C° 0.5 mm 3 mps 675 mmHg 83%
    21:00 -4°C° 0.5 mm 4 mps 675 mmHg 84%
    22:00 -5°C° 0.5 mm 5 mps 676 mmHg 86%
    23:00 -6°C° 0.5 mm 5 mps 676 mmHg 84%

    27 October, Friday

    Time Temperature Precipitation Wind Pressure Humidity
    00:00 -7°C° 0.5 mm 5 mps 677 mmHg 81%
    01:00 -7°C° 0.5 mm 5 mps 678 mmHg 79%
    02:00 -7°C° 0.1 mm 5 mps 678 mmHg 75%
    03:00 -8°C° 0.1 mm 5 mps 678 mmHg 71%
    04:00 -8°C° 0.1 mm 4 mps 679 mmHg 66%
    05:00 -8°C° 0 mm 4 mps 680 mmHg 68%
    06:00 -8°C° 0 mm 3 mps 680 mmHg 70%
    07:00 -8°C° 0 mm 3 mps 681 mmHg 72%
    08:00 -8°C° 0 mm 4 mps 681 mmHg 68%
    09:00 -7°C° 0 mm 5 mps 682 mmHg 63%
    10:00 -8°C° 0 mm 6 mps 682 mmHg 59%
    11:00 -6°C° 0.1 mm 6 mps 682 mmHg 59%
    12:00 -6°C° 0.1 mm 6 mps 682 mmHg 59%
    13:00 -6°C° 0.1 mm 6 mps 682 mmHg 59%
    14:00 -6°C° 0.1 mm 5 mps 682 mmHg 63%
    15:00 -6°C° 0.1 mm 5 mps 682 mmHg 67%
    16:00 -7°C° 0.1 mm 4 mps 683 mmHg 70%
    17:00 -7°C° 0.1 mm 4 mps 683 mmHg 74%
    18:00 -7°C° 0.1 mm 4 mps 683 mmHg 78%
    19:00 -6°C° 0.1 mm 3 mps 684 mmHg 81%
    20:00 -6°C° 0.2 mm 3 mps 684 mmHg 82%
    21:00 -6°C° 0.2 mm 3 mps 684 mmHg 83%
    22:00 -6°C° 0.2 mm 3 mps 685 mmHg 83%
    23:00 -6°C° 0.2 mm 3 mps 685 mmHg 85%

    28 October, Saturday

    Time Temperature Precipitation Wind Pressure Humidity
    00:00 -6°C° 0.2 mm 3 mps 685 mmHg 86%
    01:00 -6°C° 0.2 mm 3 mps 685 mmHg 87%
    02:00 -7°C° 0.1 mm 3 mps 685 mmHg 88%
    03:00 -8°C° 0.1 mm 3 mps 686 mmHg 88%
    04:00 -8°C° 0.1 mm 3 mps 686 mmHg 88%
    05:00 -8°C° 0 mm 2 mps 686 mmHg 89%
    06:00 -8°C° 0 mm 2 mps 686 mmHg 91%
    07:00 -8°C° 0 mm 1 mps 686 mmHg 92%
    08:00 -7°C° 0 mm 2 mps 687 mmHg 83%
    09:00 -5°C° 0 mm 2 mps 687 mmHg 75%
    10:00 -4°C° 0 mm 3 mps 688 mmHg 67%
    11:00 -4°C° 0 mm 3 mps 687 mmHg 64%
    12:00 -2°C° 0 mm 3 mps 687 mmHg 62%
    13:00 -1°C° 0 mm 3 mps 687 mmHg 60%
    14:00 -2°C° 0 mm 3 mps 686 mmHg 63%
    15:00 -2°C° 0 mm 2 mps 686 mmHg 66%
    16:00 -3°C° 0 mm 2 mps 685 mmHg 69%
    17:00 -4°C° 0 mm 2 mps 685 mmHg 73%
    18:00 -5°C° 0 mm 2 mps 685 mmHg 76%
    19:00 -6°C° 0 mm 2 mps 685 mmHg 80%
    20:00 -6°C° 0 mm 2 mps 685 mmHg 79%
    21:00 -7°C° 0 mm 2 mps 684 mmHg 78%
    22:00 -7°C° 0 mm 2 mps 684 mmHg 77%
    23:00 -8°C° 0 mm 3 mps 684 mmHg 76%

    29 October, Sunday

    Time Temperature Precipitation Wind Pressure Humidity
    00:00 -8°C° 0 mm 3 mps 683 mmHg 74%
    01:00 -8°C° 0 mm 3 mps 683 mmHg 73%
    02:00 -8°C° 0 mm 3 mps 682 mmHg 70%
    03:00 -8°C° 0 mm 3 mps 682 mmHg 68%
    04:00 -8°C° 0 mm 3 mps 682 mmHg 66%
    05:00 -8°C° 0 mm 3 mps 681 mmHg 64%
    06:00 -8°C° 0 mm 3 mps 681 mmHg 62%
    07:00 -8°C° 0 mm 3 mps 681 mmHg 60%
    08:00 -5°C° 0 mm 3 mps 681 mmHg 52%
    09:00 -2°C° 0 mm 4 mps 681 mmHg 45%
    10:00 0°C° 0 mm 4 mps 681 mmHg 37%
    11:00 +1°C° 0 mm 4 mps 680 mmHg 37%
    12:00 +3°C° 0 mm 4 mps 679 mmHg 36%
    13:00 +4°C° 0 mm 4 mps 679 mmHg 36%
    14:00 +1°C° 0 mm 4 mps 678 mmHg 42%
    15:00 +1°C° 0 mm 3 mps 678 mmHg 48%
    16:00 -1°C° 0 mm 2 mps 677 mmHg 54%
    17:00 -2°C° 0 mm 2 mps 677 mmHg 57%
    18:00 -4°C° 0 mm 2 mps 677 mmHg 61%
    19:00 -5°C° 0 mm 2 mps 677 mmHg 65%
    20:00 -5°C° 0 mm 2 mps 676 mmHg 65%
    21:00 -4°C° 0 mm 1 mps 676 mmHg 65%
    22:00 -4°C° 0 mm 1 mps 676 mmHg 65%
    23:00 -4°C° 0 mm 1 mps 675 mmHg 65%

    30 October, Monday

    Time Temperature Precipitation Wind Pressure Humidity
    00:00 -4°C° 0 mm 1 mps 675 mmHg 65%
    01:00 -4°C° 0 mm 1 mps 675 mmHg 65%
    02:00 -4°C° 0 mm 1 mps 675 mmHg 65%
    03:00 -4°C° 0 mm 1 mps 674 mmHg 65%
    04:00 -4°C° 0 mm 1 mps 674 mmHg 64%
    05:00 -4°C° 0 mm 1 mps 674 mmHg 65%
    06:00 -5°C° 0 mm 0 mps 674 mmHg 67%
    07:00 -6°C° 0 mm 0 mps 673 mmHg 68%
    08:00 -4°C° 0 mm 0 mps 674 mmHg 62%
    09:00 -2°C° 0 mm 0 mps 674 mmHg 56%
    10:00 +1°C° 0 mm 1 mps 674 mmHg 50%
    11:00 +1°C° 0 mm 1 mps 674 mmHg 49%
    12:00 +2°C° 0 mm 1 mps 674 mmHg 48%
    13:00 +2°C° 0 mm 2 mps 673 mmHg 47%
    14:00 +1°C° 0 mm 2 mps 674 mmHg 55%
    15:00 -1°C° 0 mm 2 mps 674 mmHg 63%
    16:00 -2°C° 0 mm 3 mps 674 mmHg 71%
    17:00 -4°C° 0.2 mm 3 mps 674 mmHg 75%
    18:00 -5°C° 0.2 mm 4 mps 675 mmHg 80%
    19:00 -7°C° 0.2 mm 4 mps 676 mmHg 84%
    20:00 -7°C° 0.1 mm 4 mps 676 mmHg 84%
    21:00 -8°C° 0.1 mm 4 mps 677 mmHg 83%
    22:00 -8°C° 0.1 mm 4 mps 677 mmHg 82%
    23:00 -8°C° 0.2 mm 4 mps 678 mmHg 82%
    Show more